Location: BGSU Observatory
(41.3799°N, 83.6397°W)
Time: 06:32:52
(UTC-04:00)

Amateur Radio Satellites - All Passes

Search period start: 25 July 2014 06:02
Search period end: 26 July 2014 06:02
Location: BGSU Observatory, 41.3799°N, 83.6397°W

Satellite Date Start Highest point End Downlink Frequencies (MHz)
Time Altitude Azimuth
KITSAT 1 25 Jul 06:20:04 06:25:00 18° 101° (E) 06:29:56 435.175 FM
STRAND 1 25 Jul 06:22:01 06:25:50 21° 63° (ENE) 06:29:39 ?
Hamsat 25 Jul 06:29:12 06:31:19 13° 91° (E) 06:33:26 145.90 MHz
AO-7 25 Jul 06:51:26 06:59:39 64° 293° (WNW) 07:07:47 29.400 - 29.500 MHz
Oscar 10/S400 25 Jul 06:51:42 08:10:06 34° 243° (WSW) 12:07:37 145.825 - 145.975 CW/USB, Beacon 145.810 USB
ISS 25 Jul 07:00:29 07:03:18 24° 21° (NNE) 07:06:06 145.800 FM
JAS-2 25 Jul 07:11:56 07:17:20 32° 93° (E) 07:22:13 435.800 - 435.900 CW/SSB, 435.910 FM
Lituanica SAT-1 25 Jul 07:16:50 07:18:44 30° 221° (SW) 07:20:38 437.275 MHz beacon
Uosat F 25 Jul 07:43:23 07:45:01 12° 302° (WNW) 07:46:40 435.120 FM
MaSat-1 25 Jul 07:53:20 07:58:20 39° 57° (ENE) 08:03:09 437.345 MHz
STRAND 1 25 Jul 07:59:41 08:04:39 49° 260° (W) 08:09:40 ?
Hamsat 25 Jul 08:03:24 08:07:35 53° 286° (WNW) 08:11:46 145.90 MHz
KITSAT 1 25 Jul 08:11:09 08:19:16 88° 119° (ESE) 08:27:25 435.175 FM
SO-67 25 Jul 08:16:41 08:19:48 30° 97° (E) 08:22:53 435.3500 MHz FM
ISS 25 Jul 08:36:55 08:40:16 64° 219° (SW) 08:43:35 145.800 FM
AO-7 25 Jul 08:46:34 08:50:49 15° 314° (NW) 08:55:04 29.400 - 29.500 MHz
Saudisat 1A 25 Jul 08:55:59 08:59:52 31° 115° (ESE) 09:03:47 436.775 MHz
JAS-2 25 Jul 08:56:52 09:02:29 36° 295° (WNW) 09:07:32 435.800 - 435.900 CW/SSB, 435.910 FM
PANSAT 25 Jul 09:10:00 09:11:31 12° 179° (S) 09:13:01 not established
MaSat-1 25 Jul 09:30:59 09:35:34 30° 255° (WSW) 09:39:58 437.345 MHz
SO-67 25 Jul 09:50:31 09:52:37 15° 292° (WNW) 09:54:44 435.3500 MHz FM
Sapphire 25 Jul 09:51:40 09:54:13 13° 38° (NE) 09:56:45 437.095 MHz 1200 baud AX-25 AFSK
UKube-1 25 Jul 10:00:02 10:03:03 18° 93° (E) 10:06:03 145.840 MHz, 145.915 MHz
KITSAT 1 25 Jul 10:09:09 10:15:43 26° 322° (NW) 10:22:19 435.175 FM
HO-68 25 Jul 10:15:27 10:22:16 45° 100° (E) 10:29:02 435.675 MHz FM
PCSat 25 Jul 10:24:29 10:28:45 23° 46° (NE) 10:32:59 145.825 MHz
Saudisat 1A 25 Jul 10:35:31 10:39:26 30° 312° (NW) 10:43:22 436.775 MHz
Oscar 11 25 Jul 10:49:05 10:52:59 32° 97° (E) 10:56:51 145.825 FM, Beacon 2401.500 USB
FUNcube-1 25 Jul 11:00:01 11:02:21 15° 92° (E) 11:04:42 145.950 - 145.970 MHz USB
Sapphire 25 Jul 11:33:16 11:38:42 67° 59° (ENE) 11:44:05 437.095 MHz 1200 baud AX-25 AFSK
UKube-1 25 Jul 11:35:20 11:39:25 40° 289° (WNW) 11:43:29 145.840 MHz, 145.915 MHz
HO-68 25 Jul 12:03:26 12:09:47 36° 297° (WNW) 12:16:07 435.675 MHz FM
PCSat 25 Jul 12:07:14 12:12:35 61° 245° (WSW) 12:17:53 145.825 MHz
KITSAT 1 25 Jul 12:12:12 12:14:38 11° 351° (N) 12:17:05 435.175 FM
Oscar 11 25 Jul 12:25:36 12:29:00 23° 293° (WNW) 12:32:24 145.825 FM, Beacon 2401.500 USB
FUNcube-1 25 Jul 12:35:02 12:39:00 45° 287° (WNW) 12:42:59 145.950 - 145.970 MHz USB
Oscar 19 25 Jul 12:57:37 13:00:33 16° 61° (ENE) 13:03:30 437.125 CW, 437.150 USB
JAS-1B 25 Jul 12:59:19 13:03:20 14° 43° (NE) 13:07:28 435.800 - 435.900 CW/SSB
RS-15 25 Jul 13:14:37 13:22:11 21° 101° (E) 13:29:36 29.354 - 29.394 USB, Beacon 29.352 USB
Sapphire 25 Jul 13:18:10 13:21:31 17° 256° (WSW) 13:24:52 437.095 MHz 1200 baud AX-25 AFSK
Oscar 16 25 Jul 13:23:39 13:27:56 28° 66° (ENE) 13:32:14 437.025 USB, Beacon 2401.1428
ITAMSAT 1 25 Jul 13:37:14 13:40:37 18° 62° (ENE) 13:44:01 435.822 SSB
AO-Echo 25 Jul 13:44:28 13:48:22 21° 63° (ENE) 13:52:16 ?
AO-27 25 Jul 13:54:21 13:58:34 26° 65° (ENE) 14:02:48 436.795 MHz FM
Uribyol 2 25 Jul 13:56:35 14:00:55 28° 66° (ENE) 14:05:15 436.500 FM
Gurwin Techsat 1B 25 Jul 13:57:25 13:58:52 11° 57° (ENE) 14:00:19 435.225 FM
KITSAT 1 25 Jul 14:09:58 14:14:23 15° 23° (NNE) 14:18:48 435.175 FM
SO-50 25 Jul 14:25:30 14:29:56 75° 121° (ESE) 14:34:29 436.795 FM
Oscar 19 25 Jul 14:34:14 14:39:19 69° 258° (WSW) 14:44:26 437.125 CW, 437.150 USB
JAS-1B 25 Jul 14:43:05 14:51:24 52° 65° (ENE) 15:00:43 435.800 - 435.900 CW/SSB
Oscar 16 25 Jul 15:02:28 15:07:08 36° 263° (W) 15:11:51 437.025 USB, Beacon 2401.1428
UOSAT-12 25 Jul 15:10:12 15:13:00 16° 109° (ESE) 15:15:49 437.025 FM, 437.400 FM
TMSAT-1 25 Jul 15:11:24 15:16:14 37° 69° (ENE) 15:21:05 436.925 FM
ITAMSAT 1 25 Jul 15:14:26 15:19:36 62° 258° (WSW) 15:24:47 435.822 SSB
AO-Echo 25 Jul 15:21:33 15:26:42 53° 260° (W) 15:31:56 ?
RS-15 25 Jul 15:21:46 15:32:57 88° 121° (ESE) 15:43:56 29.354 - 29.394 USB, Beacon 29.352 USB
Gurwin Techsat 1B 25 Jul 15:32:39 15:37:57 80° 75° (ENE) 15:43:17 435.225 FM
AO-27 25 Jul 15:32:56 15:37:51 41° 262° (W) 15:42:48 436.795 MHz FM
Uribyol 2 25 Jul 15:35:25 15:40:13 37° 262° (W) 15:45:03 436.500 FM
Uosat F 25 Jul 15:38:59 15:42:03 16° 61° (ENE) 15:45:07 435.120 FM
AO-7 25 Jul 15:58:19 16:05:55 41° 61° (ENE) 16:13:32 29.400 - 29.500 MHz
KITSAT 1 25 Jul 16:04:32 16:12:14 45° 49° (NE) 16:19:52 435.175 FM
SO-50 25 Jul 16:08:10 16:11:03 17° 320° (NW) 16:13:59 436.795 FM
OPAL 25 Jul 16:17:54 16:18:39 10° 91° (E) 16:19:25 ?
JAS-1B 25 Jul 16:34:00 16:41:59 42° 266° (W) 16:51:00 435.800 - 435.900 CW/SSB
UOSAT-12 25 Jul 16:48:06 16:52:39 59° 306° (NW) 16:57:18 437.025 FM, 437.400 FM
TMSAT-1 25 Jul 16:51:44 16:56:12 28° 265° (W) 17:00:43 436.925 FM
Uosat F 25 Jul 17:15:18 17:20:18 65° 258° (WSW) 17:25:20 435.120 FM
Gurwin Techsat 1B 25 Jul 17:16:21 17:18:31 12° 271° (W) 17:20:42 435.225 FM
Saudisat 1A 25 Jul 17:22:26 17:26:16 28° 47° (NE) 17:30:04 436.775 MHz
JAS-2 25 Jul 17:23:48 17:29:09 21° 59° (ENE) 17:34:19 435.800 - 435.900 CW/SSB, 435.910 FM
Hamsat 25 Jul 17:25:00 17:25:25 10° 62° (ENE) 17:25:49 145.90 MHz
RS-15 25 Jul 17:37:15 17:46:48 32° 327° (NNW) 17:56:21 29.354 - 29.394 USB, Beacon 29.352 USB
AO-7 25 Jul 17:50:34 17:58:32 48° 259° (W) 18:06:34 29.400 - 29.500 MHz
OPAL 25 Jul 17:53:04 17:58:09 88° 287° (WNW) 18:03:16 ?
KITSAT 1 25 Jul 18:00:05 18:07:39 46° 249° (WSW) 18:15:10 435.175 FM
UOSAT-12 25 Jul 18:32:18 18:33:49 11° 327° (NNW) 18:35:19 437.025 FM, 437.400 FM
SO-67 25 Jul 18:51:56 18:53:08 12° 66° (ENE) 18:54:21 435.3500 MHz FM
Hamsat 25 Jul 18:56:36 19:00:45 75° 258° (WSW) 19:04:57 145.90 MHz
Saudisat 1A 25 Jul 19:01:54 19:05:53 34° 245° (WSW) 19:09:49 436.775 MHz
JAS-2 25 Jul 19:05:26 19:13:20 89° 256° (WSW) 19:20:51 435.800 - 435.900 CW/SSB, 435.910 FM
OPAL 25 Jul 19:34:23 19:36:17 12° 304° (WNW) 19:38:12 ?
RS-15 25 Jul 19:56:23 20:03:58 20° 2° (N) 20:11:37 29.354 - 29.394 USB, Beacon 29.352 USB
STRAND 1 25 Jul 20:10:06 20:15:08 56° 101° (E) 20:20:07 ?
SO-67 25 Jul 20:22:31 20:25:49 42° 262° (W) 20:29:09 435.3500 MHz FM
HO-68 25 Jul 20:44:19 20:50:39 35° 62° (ENE) 20:57:00 435.675 MHz FM
JAS-2 25 Jul 20:54:11 20:59:04 18° 272° (W) 21:03:51 435.800 - 435.900 CW/SSB, 435.910 FM
UKube-1 25 Jul 20:56:09 20:59:02 18° 64° (ENE) 21:01:55 145.840 MHz, 145.915 MHz
SO-50 25 Jul 21:18:09 21:20:16 13° 36° (NE) 21:22:23 436.795 FM
Oscar 11 25 Jul 21:44:32 21:48:06 26° 68° (ENE) 21:51:41 145.825 FM, Beacon 2401.500 USB
MaSat-1 25 Jul 21:47:34 21:49:18 13° 98° (E) 21:51:08 437.345 MHz
STRAND 1 25 Jul 21:50:23 21:53:53 19° 298° (WNW) 21:57:21 ?
FUNcube-1 25 Jul 21:57:24 21:59:34 14° 64° (ENE) 22:01:43 145.950 - 145.970 MHz USB
RS-15 25 Jul 22:10:56 22:20:52 36° 37° (NE) 22:30:59 29.354 - 29.394 USB, Beacon 29.352 USB
UKube-1 25 Jul 22:30:42 22:34:53 45° 260° (W) 22:39:06 145.840 MHz, 145.915 MHz
HO-68 25 Jul 22:31:19 22:38:09 47° 260° (W) 22:45:01 435.675 MHz FM
SO-50 25 Jul 22:56:57 23:01:42 69° 55° (NE) 23:06:30 436.795 FM
Lituanica SAT-1 25 Jul 23:17:12 23:17:40 11° 133° (SE) 23:18:07 437.275 MHz beacon
Oscar 11 25 Jul 23:20:31 23:24:12 27° 264° (W) 23:27:54 145.825 FM, Beacon 2401.500 USB
MaSat-1 25 Jul 23:21:56 23:25:51 57° 300° (WNW) 23:30:28 437.345 MHz
FUNcube-1 25 Jul 23:31:13 23:35:31 57° 260° (W) 23:39:45 145.950 - 145.970 MHz USB
UOSAT-12 25 Jul 23:38:24 23:41:46 19° 41° (NE) 23:45:06 437.025 FM, 437.400 FM
RS-15 26 Jul 00:23:18 00:34:20 78° 242° (WSW) 00:45:47 29.354 - 29.394 USB, Beacon 29.352 USB
SO-50 26 Jul 00:39:10 00:41:44 15° 251° (WSW) 00:44:19 436.795 FM
Lituanica SAT-1 26 Jul 00:47:59 00:49:56 34° 329° (NNW) 00:51:54 437.275 MHz beacon
PCSat 26 Jul 01:07:54 01:11:17 17° 104° (ESE) 01:14:40 145.825 MHz
UOSAT-12 26 Jul 01:17:41 01:22:24 69° 240° (WSW) 01:27:02 437.025 FM, 437.400 FM
ISS 26 Jul 01:19:13 01:22:22 39° 138° (SE) 01:25:31 145.800 FM
Sapphire 26 Jul 02:14:59 02:20:18 62° 115° (ESE) 02:25:39 437.095 MHz 1200 baud AX-25 AFSK
JAS-1B 26 Jul 02:31:55 02:37:03 16° 81° (E) 02:41:50 435.800 - 435.900 CW/SSB
RS-15 26 Jul 02:38:23 02:44:51 18° 262° (W) 02:51:29 29.354 - 29.394 USB, Beacon 29.352 USB
Oscar 19 26 Jul 02:45:50 02:50:44 42° 98° (E) 02:55:36 437.125 CW, 437.150 USB
PCSat 26 Jul 02:48:44 02:54:06 66° 302° (WNW) 02:59:31 145.825 MHz
ISS 26 Jul 02:56:07 02:59:08 30° 335° (NNW) 03:02:11 145.800 FM
Oscar 16 26 Jul 03:13:26 03:18:37 80° 103° (ESE) 03:23:48 437.025 USB, Beacon 2401.1428
ITAMSAT 1 26 Jul 03:27:21 03:32:21 47° 99° (E) 03:37:18 435.822 SSB
TMSAT-1 26 Jul 03:28:32 03:31:20 14° 90° (E) 03:34:08 436.925 FM
AO-Echo 26 Jul 03:29:02 03:34:03 51° 99° (E) 03:38:51 ?
OPAL 26 Jul 03:31:12 03:34:50 21° 61° (ENE) 03:38:28 ?
AO-27 26 Jul 03:45:33 03:50:45 71° 103° (ESE) 03:55:54 436.795 MHz FM
Uribyol 2 26 Jul 03:47:35 03:52:46 78° 103° (ESE) 03:57:55 436.500 FM
Gurwin Techsat 1B 26 Jul 03:49:13 03:53:57 32° 96° (E) 03:58:38 435.225 FM
Sapphire 26 Jul 03:59:57 04:04:09 22° 314° (NW) 04:08:22 437.095 MHz 1200 baud AX-25 AFSK
JAS-1B 26 Jul 04:19:37 04:29:16 77° 103° (ESE) 04:37:32 435.800 - 435.900 CW/SSB
Oscar 19 26 Jul 04:25:43 04:29:50 25° 295° (WNW) 04:33:57 437.125 CW, 437.150 USB
ISS 26 Jul 04:34:40 04:36:40 15° 355° (N) 04:38:40 145.800 FM
PCSat 26 Jul 04:36:06 04:38:36 13° 322° (NW) 04:41:05 145.825 MHz
Oscar 16 26 Jul 04:54:46 04:57:18 14° 300° (WNW) 04:59:50 437.025 USB, Beacon 2401.1428
TMSAT-1 26 Jul 05:06:29 05:11:46 70° 286° (WNW) 05:17:01 436.925 FM
ITAMSAT 1 26 Jul 05:07:35 05:11:31 22° 296° (WNW) 05:15:27 435.822 SSB
OPAL 26 Jul 05:08:37 05:13:23 48° 258° (WSW) 05:18:11 ?
AO-Echo 26 Jul 05:08:45 05:12:23 20° 297° (WNW) 05:15:56 ?
Uosat F 26 Jul 05:23:09 05:27:50 38° 98° (E) 05:32:29 435.120 FM
AO-27 26 Jul 05:26:41 05:29:39 16° 300° (WNW) 05:32:37 436.795 MHz FM
Lituanica SAT-1 26 Jul 05:27:54 05:29:27 18° 26° (NNE) 05:31:00 437.275 MHz beacon
Uribyol 2 26 Jul 05:28:56 05:31:35 14° 300° (WNW) 05:34:14 436.500 FM
Gurwin Techsat 1B 26 Jul 05:29:10 05:33:52 33° 293° (WNW) 05:38:33 435.225 FM
STRAND 1 26 Jul 05:51:32 05:52:48 11° 57° (ENE) 05:54:05 ?
